Regional Weather Roundup
Issued by NWS Kansas City/Pleasant Hill, MO

Current Version | Previous Version | Text Only | Print | Product List | Glossary On
Versions: 1 2 3 4 5 6 7 8 9 10 11 12 13 14 15 16 17 18 19 20 21 22 23 24 25 26 27 28
000
ASUS43 KEAX 221110
RWREAX

WEATHER ROUNDUP FOR EASTERN KANSAS AND NORTHWEST MISSOURI
NATIONAL WEATHER SERVICE KANSAS CITY/PLEASANT HILL MO
600 AM CDT SUN APR 22 2018

KSZ040-057-103>105-MOZ028-029-037-043-221200-
...KANSAS CITY METROPOLITAN AREA...

CITY           SKY/WX    TMP DP  RH WIND       PRES   REMARKS
K.C. INTL      CLOUDY    51  32  48 E13       30.10S
K.C. DOWNTOWN  CLOUDY    53  36  52 E7        30.09S
LEES SUMMIT    LGT RAIN  48  40  73 NE8       30.09S
OLATHE - IXD   LGT RAIN  49  40  71 NE10      30.08S
OLATHE - OJC   LGT RAIN  48  39  71 NE10      30.07S
LAWRENCE       CLOUDY    51  38  60 NE8       30.09R

$$

MOZ001>008-011>017-020>025-030>033-038>040-044>046-053-054-221200-
...NORTHERN AND CENTRAL MISSOURI...

CITY           SKY/WX    TMP DP  RH WIND       PRES   REMARKS
ST. JOSEPH     CLOUDY    51  32  48 NE9       30.14R
MOSBY          CLOUDY    52  32  46 CALM      30.10S
WARRENSBURG    RAIN      46  41  81 N5        30.09S
WHITEMAN AFB   LGT RAIN  48  43  82 NE8       30.04S
CLINTON        RAIN      48  45  87 NE12      30.05S
SEDALIA        LGT RAIN  51  43  74 NE9       30.09S
WARSAW         NOT AVBL
CHILLICOTHE      N/A     52  31  44 NE8       30.15F
KIRKSVILLE     CLOUDY    49  32  52 NE13      30.17F

$$

MOZ041-047>049-056>058-063>065-088>090-097-221200-
...EASTERN AND SOUTHERN MISSOURI...

CITY           SKY/WX    TMP DP  RH WIND       PRES   REMARKS
ST. LOUIS INTL LGT RAIN  54  36  50 E8        30.16S
SPIRIT OF STL  CLOUDY    52  40  63 E6        30.14F
COLUMBIA       LGT RAIN  51  39  63 E10       30.10F
JEFFERSON CITY LGT RAIN  51  41  68 NE12G21   30.10S
ROLLA          LGT RAIN  51  40  65 E14       30.07S
OSAGE BEACH    LGT RAIN  52  41  66 NE10      30.06R
SPRINGFIELD    LGT RAIN  55  48  77 E7        29.96S
BRANSON        LGT RAIN  54  54 100 CALM      29.97R
JOPLIN         LGT RAIN  50  49  96 N10       29.98F
WEST PLAINS    CLOUDY    56  49  77 E13       30.01S

$$

IAZ060-094-KSZ022-034>040-054-083-096-NEZ052-066-093-221200-
...KANSAS...SOUTHEAST NEBRASKA AND IOWA...

CITY           SKY/WX    TMP DP  RH WIND       PRES   REMARKS
TOPEKA         CLOUDY    50  38  63 N7        30.09R
MANHATTAN      CLOUDY    47  37  68 N6        30.11R
EMPORIA        CLOUDY    47  38  71 N10       30.06R
CHANUTE        CLOUDY    49  45  86 N9        30.02R
WICHITA        LGT RAIN  45  44  97 NW14      30.09R
OMAHA          CLOUDY    44  31  60 N6        30.21S
LINCOLN        PTCLDY    37  30  75 N7        30.20F WCI  32
FALLS CITY     PTCLDY    47  31  53 NE7       30.15R
LAMONI         CLOUDY    47  31  53 NE10      30.18F
DES MOINES     CLOUDY    47  31  53 E8        30.24S

$$





USA.gov is the U.S. government's official web portal to all federal, state and local government web resources and services.